Starlink 11077

operational
NORAD ID: 58707 Int'l Des: 2024-002 Owner: SPXS Country: US Constellation: starlink
LEOCIRCULAR

About Starlink 11077

Description loading...

Live Position

Loading 3D Globe...

Upcoming Passes

Altitude History

Altitude vs Time

uPlot chart will show altitude changes over time

Two-Line Element Set

1 58707U 24002C 25257.75723685 .00000460 00000-0 86499-5 0 9990
2 58707 53.1580 61.4017 0000873 46.4019 313.7071 15.69707264 98806
Epoch: Sep 14, 2025 • Age: 26 hours

Current Status

Altitude 377.5 km
Velocity 7.68 km/s
Sub-Earth Point -50.43°S, 59.21°E
Launch Date Jan 3, 2024
Age 1.7 years
Type internet

Technical Details

Classification Payload
Mass 960.00 kg
Dry Mass 910.00 kg
Total Mass 960.00 kg
Length 0.30 m
Diameter 4.10 m
Span 29.00 m
Shape Box + pan
Manufacturer SPXS
Bus Type Starlink V2MD
Phase Status In Orbit
Owner/State SPXS/US

Large Constellations

Loading constellations...